Wellsville, NY

2:39 AM EDT on October 22, 2017 (GMT -0400)
Wellsville Municipal-Tarantine

Weather History for KELZ - May, 2014

Change the Weather History Date:

Friday, May 23, 2014

  Actual Average (KDSV) Record (KDSV)
Temperature  
Mean Temperature 52 °F -  
Max Temperature 62 °F 71 °F 93 °F (1977)
Min Temperature 46 °F 46 °F 29 °F (1967)
Degree Days  
Heating Degree Days 12    
Growing Degree Days 2 (Base 50)    
Moisture  
Dew Point 44 °F    
Average Humidity 76    
Maximum Humidity 90    
Minimum Humidity 51    
Precipitation  
Precipitation 0.02 in - - ()
Sea Level Pressure  
Sea Level Pressure 30.00 in    
Wind  
Wind Speed 11 mph (WNW)    
Max Wind Speed 17 mph    
Max Gust Speed 23 mph    
Visibility 10 miles    
Events Rain    
Averages and records for this station are not official NWS values.
T = Trace of Precipitation, MM = Missing Value Source: NWS Daily Summary

Daily Weather History Graph

Daily Weather History Graph

Search for Another Location

Airport or City:

Trip Planner

Search our weather history database for the weather conditions in past years. The results will help you decide how hot, cold, wet, or windy it might be!

Date:

Astronomy

May. 23, 2014 Rise Set
Actual Time 5:44 AM EDT 8:33 PM EDT
Civil Twilight 5:11 AM EDT 9:06 PM EDT
Nautical Twilight 4:29 AM EDT 9:48 PM EDT
Astronomical Twilight 3:42 AM EDT 10:36 PM EDT
Moon 2:43 AM EDT (5/23) 3:19 PM EDT (5/23)
Length of Visible Light 15h 55m
Length of Day
14h 49m
Waning Crescent, 27% of the Moon is Illuminated
May 23
Waning Crescent
May 28
New
Jun 5
First Quarter
Jun 13
Full
Jun 19
Last Quarter

Hourly Weather History & Observations

Time (EDT) Temp. Dew Point Humidity Pressure Visibility Wind Dir Wind Speed Gust Speed Precip Events Conditions
12:56 AM 50.0 °F 44.1 °F 80% 29.96 in 10.0 mi West 12.7 mph - N/A   Scattered Clouds
1:56 AM 48.0 °F 44.1 °F 86% 29.95 in 10.0 mi NW 8.1 mph - N/A   Partly Cloudy
2:17 AM 50.0 °F 44.1 °F 80% 29.95 in 10.0 mi WNW 10.4 mph - N/A   Mostly Cloudy
2:56 AM 50.0 °F 45.0 °F 83% 29.94 in 10.0 mi NW 6.9 mph - N/A   Overcast
3:48 AM 51.1 °F 46.0 °F 83% 29.94 in 10.0 mi WNW 6.9 mph - N/A   Overcast
3:56 AM 51.1 °F 46.0 °F 83% 29.93 in 10.0 mi WNW 6.9 mph - N/A   Overcast
4:19 AM 51.1 °F 46.0 °F 83% 29.94 in 10.0 mi WNW 9.2 mph - N/A   Overcast
4:56 AM 51.1 °F 46.0 °F 83% 29.93 in 10.0 mi NW 10.4 mph - N/A   Overcast
5:23 AM 50.0 °F 45.0 °F 83% 29.93 in 10.0 mi NW 8.1 mph - N/A   Overcast
5:56 AM 46.9 °F 43.0 °F 86% 29.94 in 10.0 mi WNW 5.8 mph - N/A   Scattered Clouds
6:56 AM 46.9 °F 43.0 °F 86% 29.96 in 10.0 mi WNW 8.1 mph - N/A   Scattered Clouds
7:56 AM 50.0 °F 42.1 °F 74% 29.97 in 10.0 mi WNW 16.1 mph - N/A   Clear
8:56 AM 51.1 °F 39.9 °F 66% 29.99 in 10.0 mi NW 13.8 mph - N/A   Clear
9:56 AM 55.9 °F 42.1 °F 60% 29.99 in 10.0 mi NW 11.5 mph - N/A   Scattered Clouds
10:56 AM 57.0 °F 41.0 °F 55% 29.99 in 10.0 mi WNW 12.7 mph 23.0 mph N/A   Mostly Cloudy
11:56 AM 59.0 °F 41.0 °F 51% 29.98 in 10.0 mi West 17.3 mph 21.9 mph N/A   Mostly Cloudy
12:56 PM 59.0 °F 41.0 °F 51% 29.98 in 10.0 mi WNW 13.8 mph - N/A   Overcast
1:56 PM 57.0 °F 41.0 °F 55% 29.99 in 10.0 mi NW 11.5 mph - N/A   Overcast
2:56 PM 55.9 °F 42.1 °F 60% 30.01 in 10.0 mi NW 13.8 mph 21.9 mph N/A   Overcast
3:49 PM 53.1 °F 45.0 °F 74% 30.02 in 10.0 mi NW 11.5 mph - 0.01 in Rain Light Rain
4:33 PM 52.0 °F 46.0 °F 80% 30.02 in 10.0 mi NW 10.4 mph - 0.02 in Rain Light Rain
4:56 PM 52.0 °F 46.9 °F 83% 30.04 in 10.0 mi WNW 10.4 mph - 0.02 in Rain Light Rain
5:28 PM 55.0 °F 48.0 °F 77% 30.03 in 10.0 mi NW 6.9 mph - 0.00 in   Overcast
5:56 PM 53.1 °F 46.0 °F 77% 30.06 in 10.0 mi NNW 11.5 mph - 0.00 in   Overcast
6:56 PM 52.0 °F 45.0 °F 77% 30.06 in 10.0 mi NW 11.5 mph - N/A   Overcast
7:56 PM 52.0 °F 45.0 °F 77% 30.07 in 10.0 mi NW 8.1 mph - N/A   Overcast
8:20 PM 51.1 °F 45.0 °F 80% 30.07 in 10.0 mi WNW 12.7 mph - N/A   Overcast
8:56 PM 50.0 °F 46.0 °F 86% 30.09 in 10.0 mi WNW 9.2 mph - 0.00 in Rain Light Rain
9:56 PM 48.9 °F 46.0 °F 90% 30.10 in 10.0 mi West 9.2 mph - 0.00 in   Overcast
10:56 PM 50.0 °F 46.0 °F 86% 30.09 in 10.0 mi WNW 12.7 mph - N/A   Overcast
11:56 PM 50.0 °F 46.0 °F 86% 30.09 in 10.0 mi WNW 13.8 mph - N/A   Overcast